Find Local Weather

World > North America > United States > New Mexico

Albuquerque, New Mexico Regional Weather

Lat: 35.12N, Lon: 106.62W
Wx Zone: NMZ519
Warning FLW WEATHER ALERT - (More Info. Click Here) Warning
Feedback
Expires:201807162300;;585407
ASUS45 KABQ 162210
RWRNM 
NEW MEXICO REGIONAL WEATHER ROUNDUP
NATIONAL WEATHER SERVICE ALBUQUERQUE NM
400 PM MDT MON JUL 16 2018

NOTE: "FAIR" MEANS FEW OR NO CLOUDS BELOW 12,000 FEET AGL WITH NO
       SIGNIFICANT WEATHER OR OBSTRUCTIONS TO VISION.

      THIS PRODUCT IS RELEASED AS TWO VERSIONS.  ONE VERSION NEAR
      THE TOP OF THE HOUR CONTAINING PRELIMINARY DATA FROM ALBUQUERQUE
      AND OTHER STATIONS.  A FINAL VERSION WITH ADDITIONAL DATA IS 
      ISSUED ABOUT 10 MINUTES AFTER THE HOUR.
 

NMZ519>523-162300-
CENTRAL VALLEYS/CENTRAL HIGHLANDS
  
CITY           SKY/WX    TMP DP  RH WIND       PRES   REMARKS
ALBUQUERQUE    PTSUNNY   85  56  37 S17G23    30.16F                  
DOUBLE EAGLE     N/A     84  50  30 E9G23     30.21F                  
MORIARTY ARPT  FAIR      84  53  33 S15G22    30.27S                  
CLINES CORNERS FAIR      77  55  46 SW18      30.32F                  
BELEN          FAIR      86  53  32 SE12G17   30.17F                  
SOCORRO        LGT RAIN  77  60  54 E7        30.16F                  

$$

SKY/WX - Weather  TMP - Temperature  DP - Dewpoint  RH - Relative Humidity
WIND - Wind Direction/Speed PRES - Barometric Pressure